Theta_e
349 349 346 342 339 337 335 333 332 333 335 337 339 338 333 328 326 324 320 317 316 316 317 317 317 318 318 318 321 322 321 321 322 324 325 327 328 328 329 329 329 329 328 328 328 328 328 327 327 328 328 328 328 328 328 327 327 327 327 327 327 328 327 327 327 325 323 324 324 322 322 322 322 322 322 323 323 324 323 322 320 319 318 317 316
348 349 349 346 341 337 336 335 335 336 337 337 337 337 332 328 325 321 319 317 316 316 317 317 318 318 318 319 322 321 321 324 326 327 328 328 329 329 330 330 330 330 329 329 329 329 328 328 327 328 328 328 327 327 327 326 326 327 327 327 327 327 326 326 327 326 324 324 325 325 325 324 322 321 321 322 322 322 321 320 318 317 317 317 317
348 349 351 349 343 336 334 335 335 335 335 335 336 334 328 325 323 319 316 316 316 317 316 317 320 318 318 322 323 321 323 326 328 328 328 328 329 329 329 330 329 329 329 329 329 329 328 327 327 329 329 327 326 325 326 326 326 326 327 327 327 326 325 325 325 325 325 324 323 323 324 324 322 320 319 320 320 319 319 317 316 316 315 316 317
348 349 351 349 343 338 334 332 331 332 334 337 337 332 325 324 321 318 317 316 315 317 317 318 320 320 321 325 325 323 324 327 327 328 329 328 329 329 329 329 329 329 329 329 328 327 327 327 327 328 328 326 324 324 324 325 326 326 326 326 326 325 324 325 324 323 324 324 322 321 321 322 323 321 318 318 318 318 318 317 315 315 316 318 318
349 349 350 348 346 343 335 329 329 331 334 338 338 333 326 323 320 317 318 318 316 316 317 319 320 321 324 326 326 325 325 326 328 329 329 328 329 329 329 329 329 329 328 327 325 324 324 325 326 327 327 325 324 323 323 324 325 326 326 325 325 325 324 325 325 325 325 325 325 323 322 323 324 322 319 319 319 318 317 315 315 315 317 318 318
349 349 350 349 347 344 337 332 332 331 332 335 337 334 327 321 319 318 319 321 320 317 316 319 321 323 325 326 326 325 324 325 328 328 328 328 329 329 329 328 328 328 326 325 323 323 323 324 325 325 325 325 324 323 323 324 325 325 325 326 325 325 325 325 325 325 325 325 325 325 324 324 325 324 322 322 322 321 319 318 318 319 319 319 318
349 350 351 349 347 346 342 339 335 332 332 334 338 338 332 323 319 319 321 322 321 318 317 318 321 324 326 326 326 324 322 325 328 328 328 328 329 329 328 328 327 327 325 324 323 323 324 324 325 325 325 324 324 323 323 324 324 324 325 326 326 325 325 325 325 325 325 325 325 326 325 324 325 325 324 323 323 323 323 322 322 322 322 322 322
349 351 352 351 349 348 347 345 340 335 333 335 339 341 334 324 320 322 324 323 319 317 318 318 320 324 326 326 325 323 322 325 328 329 328 329 328 328 327 327 327 326 325 324 323 324 324 324 325 325 324 325 324 324 324 324 324 324 324 325 326 326 325 325 325 325 325 325 325 325 325 324 324 325 324 323 324 324 323 323 323 324 324 323 323
350 351 352 352 351 350 350 350 348 343 335 329 335 341 334 323 321 326 329 327 322 319 318 319 320 323 326 326 324 323 323 325 328 329 329 328 327 326 326 326 325 325 324 324 324 325 325 325 326 326 326 327 326 326 327 327 326 325 324 323 324 325 324 324 325 326 327 326 325 325 325 324 324 324 324 323 323 323 323 323 323 323 324 323 322
350 351 351 351 351 352 353 352 351 349 343 332 333 341 336 324 321 327 330 331 329 322 319 319 320 322 326 326 323 322 323 326 329 329 329 328 326 325 325 324 323 323 324 324 324 325 326 327 328 328 328 327 327 327 328 328 328 327 326 324 324 323 323 323 324 327 329 328 326 324 324 324 324 325 325 324 323 324 323 323 323 323 323 323 322
350 351 351 351 352 353 353 353 351 350 348 344 342 341 336 327 323 325 329 332 330 323 319 320 320 322 325 324 323 323 325 329 331 330 329 328 326 324 325 324 324 325 326 326 326 327 329 329 330 329 328 327 327 327 327 328 328 329 328 327 327 325 322 321 322 325 328 328 327 325 324 324 325 325 325 324 324 324 323 322 323 323 323 323 323
349 349 350 351 352 352 352 352 352 350 349 349 346 340 335 331 326 323 327 332 329 322 320 320 321 324 325 324 323 323 326 330 331 330 330 329 326 325 326 327 328 329 328 328 329 329 329 330 329 329 328 327 327 327 327 327 328 328 328 328 327 324 321 320 322 324 325 327 327 325 323 323 324 323 324 324 323 322 321 322 322 322 323 323 323
347 348 350 351 352 352 352 351 351 351 349 349 349 343 337 333 327 324 328 330 325 320 319 319 323 327 326 324 323 324 327 331 331 330 330 329 327 327 328 330 330 330 329 328 328 328 329 329 329 328 327 325 325 326 327 327 327 327 326 326 325 322 320 321 321 323 324 325 326 325 323 323 323 323 323 322 322 322 321 322 322 322 322 322 322
346 348 349 351 351 351 352 351 351 351 350 349 350 348 342 333 326 326 329 327 320 318 318 319 324 328 326 323 323 324 328 330 330 330 330 330 329 329 330 331 332 331 331 329 328 328 328 328 328 328 325 323 323 325 326 326 326 326 325 323 322 321 321 321 321 322 322 323 324 324 323 323 324 323 322 321 321 321 321 321 321 321 321 321 321
346 348 349 350 351 351 351 351 351 351 349 349 349 349 344 334 326 327 329 324 318 317 318 321 326 328 325 323 323 324 326 329 329 329 330 330 330 330 330 331 333 334 333 331 329 329 328 328 328 326 324 323 323 324 325 326 326 325 323 322 321 321 321 321 322 322 322 323 323 323 323 323 323 322 322 321 321 320 320 320 321 320 320 319 319
346 347 348 349 350 350 350 351 351 350 349 348 348 349 344 334 329 329 328 324 321 320 319 323 327 326 323 323 322 322 325 327 328 328 329 330 330 330 331 332 334 334 333 331 330 329 328 328 327 325 323 323 322 323 324 325 324 323 322 322 322 322 321 321 321 321 321 322 322 323 323 322 322 322 321 320 320 320 320 320 320 319 318 318 318
346 346 348 349 349 350 350 350 350 350 349 348 348 348 344 337 333 330 325 324 325 322 321 325 328 326 323 323 321 321 324 326 327 328 329 331 331 331 332 334 334 333 332 331 329 328 328 327 325 324 323 322 322 323 324 324 323 322 322 322 321 320 320 321 321 320 320 321 321 322 322 322 321 321 320 319 320 319 319 318 318 316 316 317 317
345 346 348 348 349 349 350 350 350 350 349 348 348 347 343 338 334 328 324 325 325 321 322 326 328 326 324 321 320 321 323 326 328 330 332 332 331 332 333 334 333 332 331 330 329 328 327 326 324 323 322 321 322 323 323 323 322 322 321 320 319 318 319 321 321 321 321 321 322 322 322 321 321 320 319 319 319 319 317 316 314 312 311 312 313
344 345 347 348 348 349 349 350 349 349 348 348 348 346 343 339 333 326 325 326 322 319 322 326 328 328 325 322 321 321 322 326 330 333 333 333 332 333 333 333 332 330 329 328 327 327 325 324 323 321 321 321 322 323 323 322 322 321 320 318 317 317 319 321 322 321 322 322 322 322 321 321 320 319 319 319 319 319 317 313 310 308 308 309 310
343 346 347 348 349 349 349 349 349 348 348 347 346 345 343 338 331 326 326 324 319 320 325 329 330 330 328 325 323 322 324 328 332 334 334 333 332 333 333 332 330 329 329 327 326 325 324 322 321 321 321 322 322 323 323 322 322 320 318 317 317 318 320 321 322 322 322 321 321 321 320 319 319 319 319 318 318 317 314 311 309 309 309 310 310
344 346 348 348 348 348 348 348 348 348 347 346 345 342 339 334 329 326 325 322 320 325 329 329 330 330 330 330 328 328 331 333 334 334 334 332 332 333 333 331 330 329 327 325 325 324 322 321 321 321 321 322 322 322 322 322 321 319 317 317 318 320 321 322 322 322 321 320 320 319 319 319 318 318 317 317 316 314 312 310 309 310 310 310 310
345 346 347 348 348 348 348 348 347 347 346 345 343 341 336 331 327 325 323 321 323 328 329 329 330 332 333 334 333 332 333 334 334 333 333 333 333 333 332 331 329 327 325 324 324 323 321 321 321 321 321 321 321 321 322 321 319 317 317 319 320 321 321 321 321 320 319 319 318 318 318 317 317 317 316 315 314 312 311 310 310 311 311 311 310
346 347 347 347 347 347 347 347 347 346 344 343 341 339 335 329 325 323 322 322 323 326 327 329 332 333 334 335 335 333 333 334 334 334 334 335 334 333 331 330 328 325 324 323 323 322 321 321 321 320 321 321 321 321 321 319 317 318 319 321 321 321 320 319 319 318 318 318 317 317 317 316 314 314 313 312 311 310 310 310 311 311 311 310 308
347 348 347 347 347 347 347 346 346 345 344 342 341 338 334 328 324 323 323 323 323 324 326 329 332 332 333 335 335 334 335 336 335 335 334 334 333 331 329 328 326 324 323 322 322 321 321 320 320 320 320 320 321 320 318 316 317 319 320 320 320 319 318 318 318 318 317 317 316 315 314 313 311 310 309 309 309 310 310 310 309 308 307 306 306
346 347 347 347 347 346 346 345 345 344 343 342 340 337 332 327 325 325 326 326 324 324 326 330 331 332 333 335 335 335 335 335 334 333 332 331 330 329 327 326 325 324 322 321 321 321 320 320 319 319 320 320 320 318 316 316 318 320 319 319 319 318 317 317 317 317 316 315 314 312 310 309 308 308 309 310 310 310 308 305 304 304 304 305 308
346 346 347 347 346 345 345 344 344 344 342 340 339 336 332 329 328 328 329 329 328 327 328 330 332 333 335 336 336 335 335 334 333 332 331 329 328 326 326 325 324 323 322 321 320 320 319 319 319 319 320 320 317 315 316 318 319 319 319 318 318 317 317 317 316 315 314 313 311 309 308 308 308 309 310 309 307 304 302 301 302 303 304 308 314
345 345 346 345 344 344 344 344 343 343 341 339 338 336 334 331 329 330 331 331 330 329 329 331 333 335 337 336 335 334 334 333 332 330 328 327 326 326 325 324 323 322 321 321 320 320 319 319 319 320 320 317 314 315 317 319 319 319 318 318 317 317 316 316 315 313 312 310 308 307 308 309 309 308 306 303 301 300 300 301 302 303 307 314 318
344 344 344 343 342 342 343 343 343 342 341 339 338 337 336 333 331 331 331 330 330 330 331 334 336 337 337 335 334 334 333 332 330 328 327 327 326 326 325 324 323 322 321 320 320 319 319 319 320 319 317 314 314 316 317 318 318 318 318 317 317 316 315 314 313 311 309 308 307 308 309 308 306 303 300 298 298 299 300 301 303 306 312 317 319
344 343 342 341 340 341 341 342 342 341 340 339 338 337 337 335 333 331 331 331 331 332 333 336 337 336 335 334 333 332 331 329 328 327 327 327 326 325 324 323 323 322 320 319 319 319 320 320 318 316 314 314 315 317 317 317 317 317 317 316 315 314 314 313 311 309 308 308 308 309 308 305 301 298 297 297 298 298 300 302 305 310 315 319 319
344 342 341 340 340 340 340 341 341 340 339 338 338 338 337 337 335 334 334 334 334 334 335 336 336 334 333 333 332 330 329 328 327 327 326 326 325 324 324 322 321 320 320 319 320 320 319 317 315 314 314 314 315 315 315 315 316 316 315 315 314 313 312 310 308 307 308 309 309 307 303 299 297 296 296 296 297 298 301 303 307 312 316 318 318
342 341 340 339 339 339 340 340 340 339 338 338 339 339 339 338 338 337 337 336 336 337 337 336 334 333 333 331 329 328 328 327 327 326 326 325 324 323 322 321 320 320 319 319 319 318 316 314 314 313 313 313 314 314 313 314 315 315 314 314 313 312 310 308 308 308 309 308 306 302 298 296 296 296 296 296 297 299 302 305 309 313 316 318 318
341 340 339 338 338 338 339 339 338 338 338 338 338 339 339 338 337 337 336 337 337 338 337 335 333 332 331 329 328 328 328 327 326 326 326 325 323 322 321 320 319 317 315 314 314 314 313 314 314 313 313 313 313 312 313 314 315 314 314 313 311 309 308 308 309 309 308 304 300 297 296 296 296 296 296 296 297 300 303 307 311 314 316 317 318
340 340 340 339 337 336 336 336 336 337 337 337 337 338 337 336 335 336 338 338 338 336 335 334 332 330 329 328 328 328 327 327 326 326 325 323 322 321 319 317 315 313 312 312 313 313 314 314 315 314 313 312 311 311 313 314 314 314 312 311 309 308 308 309 309 308 304 299 296 295 296 296 296 296 296 296 296 299 303 307 311 314 315 316 318
340 340 339 337 336 336 336 336 336 336 336 336 336 334 334 334 336 338 338 337 335 334 333 332 330 329 329 328 327 327 326 326 326 324 323 321 320 317 315 314 313 313 313 313 314 314 315 315 314 313 311 310 310 312 313 313 313 312 310 309 308 308 309 309 307 303 298 296 295 296 296 296 296 295 296 296 295 297 301 306 309 312 315 316 317
337 335 333 333 335 336 336 336 335 335 335 334 332 332 334 336 337 337 336 334 333 332 331 330 329 329 328 327 326 325 325 325 324 322 321 319 317 315 314 314 314 314 314 314 313 314 314 313 312 310 310 310 310 311 312 312 311 309 308 308 308 308 309 307 302 297 295 295 296 296 295 295 296 295 295 296 295 296 299 304 308 311 314 316 317
330 329 328 329 330 330 330 330 332 335 334 332 331 333 336 337 337 335 334 332 331 330 329 329 329 327 326 325 325 325 325 324 323 321 320 319 317 316 316 315 314 313 313 313 313 313 312 311 310 310 310 310 311 311 311 310 309 308 308 308 308 308 307 302 297 295 295 296 295 295 296 295 295 295 295 296 295 295 297 302 307 310 313 315 316
328 328 327 327 327 326 325 327 331 335 335 333 334 336 336 335 334 333 331 329 328 329 329 328 326 324 324 325 325 324 324 323 321 320 319 318 317 316 315 313 312 310 310 310 310 311 311 310 310 310 310 310 310 309 309 308 308 308 308 307 307 307 303 297 295 295 295 295 295 296 296 295 295 296 295 295 295 295 296 300 305 309 312 315 316
331 331 331 331 331 331 330 331 334 337 336 334 334 335 334 333 332 331 328 327 328 328 327 326 326 325 326 326 325 324 323 321 319 318 316 315 314 313 312 311 310 309 308 308 308 309 309 310 310 310 310 310 308 307 307 307 308 308 307 307 307 305 299 294 294 295 295 295 296 296 295 296 296 296 295 295 295 295 295 298 303 308 311 314 316
332 332 333 334 337 337 336 335 336 335 334 333 332 331 332 332 330 329 328 327 327 328 327 327 327 326 326 325 324 323 321 319 317 315 313 312 312 312 311 311 310 309 308 307 307 307 309 309 309 309 309 308 307 307 307 307 308 307 307 307 306 302 296 294 295 295 295 295 296 295 296 296 296 296 296 295 295 295 295 296 300 306 310 312 314
333 333 332 333 335 335 333 333 333 332 331 332 330 329 329 328 326 325 326 326 327 327 327 327 327 326 325 324 322 320 319 318 315 313 312 312 312 311 311 310 309 308 308 307 307 307 308 309 308 307 307 307 307 307 307 307 307 307 307 307 304 298 294 294 295 294 295 295 295 295 296 296 296 296 296 295 295 295 295 295 298 303 308 311 313
333 333 329 326 327 329 329 329 330 329 329 329 327 324 324 324 323 324 325 326 326 326 326 326 326 325 324 322 320 319 318 316 314 313 313 312 312 311 311 310 309 308 307 307 307 307 307 307 306 306 306 306 306 306 307 307 306 306 307 306 301 295 293 294 294 294 295 295 295 295 296 296 296 296 296 295 295 295 294 294 296 300 306 310 312
328 326 324 323 326 328 327 326 325 325 325 325 324 323 322 323 323 323 323 324 325 326 326 326 325 324 322 320 318 317 316 315 313 313 313 312 311 311 311 309 308 307 306 306 306 307 306 305 305 305 305 305 305 304 304 304 304 305 306 303 297 294 293 294 294 294 295 295 295 295 295 295 296 296 296 296 295 294 294 295 295 298 303 308 311
322 322 324 326 326 326 324 323 324 324 324 324 324 324 323 323 322 322 322 324 325 325 325 324 324 323 321 319 318 316 315 314 314 313 313 312 311 311 310 308 307 306 305 305 306 306 306 305 305 304 304 303 303 302 302 302 303 304 302 298 294 293 294 294 294 294 295 294 294 295 295 295 296 296 296 296 296 295 294 294 295 296 300 306 309
323 323 325 326 325 324 323 324 324 325 325 325 325 324 324 323 322 322 323 324 323 323 323 323 323 322 320 318 317 316 315 315 314 314 313 313 312 311 309 307 306 306 305 304 305 306 306 305 304 303 303 302 301 299 298 299 300 299 297 294 293 294 294 294 294 294 294 294 295 295 295 295 295 296 296 296 295 295 294 294 295 296 298 303 308
324 325 325 325 325 325 325 324 323 324 325 325 325 324 324 323 323 323 323 323 323 323 323 323 322 320 319 318 316 316 315 315 315 314 314 313 312 311 309 307 306 305 304 304 305 305 305 304 304 303 303 301 299 296 295 296 296 295 293 293 294 294 294 294 294 294 294 295 295 295 295 295 295 295 296 296 295 295 294 294 295 295 297 302 306
326 326 326 325 326 327 327 326 326 326 325 325 324 324 323 323 323 323 322 322 322 322 322 322 320 319 319 317 316 316 316 315 315 314 314 313 312 310 308 307 306 305 304 303 304 305 304 304 303 302 301 299 296 294 293 294 294 293 293 294 294 294 294 294 295 295 295 295 295 295 295 294 294 295 296 296 295 294 294 294 295 295 296 299 303
326 326 324 323 325 327 327 326 325 325 324 324 324 323 322 322 322 321 321 321 322 322 321 320 320 319 319 318 317 316 316 315 315 314 313 312 311 310 308 307 306 306 304 303 303 304 304 303 302 301 300 298 295 293 293 293 293 294 294 294 294 295 295 295 295 295 295 295 295 295 294 294 294 295 295 295 295 294 294 294 294 295 296 297 299
325 324 323 324 326 327 325 324 324 324 324 323 322 322 321 321 321 321 321 321 320 320 319 319 318 318 318 317 317 317 316 315 315 314 313 312 311 309 308 307 306 305 304 303 302 302 302 302 302 301 299 297 295 294 293 294 294 294 295 295 295 295 295 295 295 295 295 295 295 294 294 294 294 294 295 295 295 294 294 294 294 294 295 296 296
325 324 324 325 325 325 324 323 324 323 323 322 321 320 319 319 319 319 318 318 317 317 316 316 315 315 316 316 316 316 315 314 313 312 311 311 310 309 308 307 306 305 305 303 302 302 302 302 302 301 300 297 295 294 294 294 295 295 295 295 295 295 296 296 296 296 296 295 294 294 294 294 294 294 295 295 294 294 294 295 294 294 295 295 295
324 325 325 325 324 323 323 323 323 322 321 320 319 317 316 316 315 315 315 315 315 314 314 314 314 315 315 315 315 315 314 313 312 310 309 309 309 309 308 307 306 305 304 303 303 302 302 302 302 301 300 298 296 295 295 295 296 296 296 296 296 296 296 296 296 296 296 295 294 293 293 293 294 294 294 294 294 294 294 294 294 294 294 295 295
323 323 323 323 322 322 321 321 320 319 318 317 316 316 315 315 315 315 315 315 315 315 314 315 314 314 314 314 314 315 315 314 312 310 309 309 309 309 308 307 307 306 304 304 303 302 302 302 302 301 300 298 296 295 296 296 296 296 296 296 296 296 296 296 296 296 295 294 293 293 293 293 294 294 294 294 294 294 294 294 294 294 295 295 296
Wind_Speed
39 38 38 38 38 39 38 38 36 35 33 31 28 26 24 21 18 17 16 16 16 15 15 16 16 15 14 14 14 14 14 13 12 10 9 8 7 7 7 8 9 9 9 10 10 11 12 13 14 14 15 15 15 16 17 18 18 18 19 19 19 19 20 21 23 27 29 27 26 26 25 25 27 26 26 27 26 27 27 26 26 24 22 22 22
40 40 39 39 40 40 39 38 37 37 35 33 31 28 25 22 19 17 17 17 16 15 16 16 15 14 14 14 14 15 14 13 12 11 10 9 9 9 10 10 11 12 12 12 12 13 14 15 15 15 15 16 16 17 17 18 18 18 18 19 18 18 19 21 22 24 28 28 26 25 24 25 27 28 28 30 30 29 29 27 25 25 23 22 22
41 40 40 41 41 40 40 39 40 39 38 36 34 30 26 23 20 19 18 17 16 16 16 16 15 15 15 15 15 15 15 14 13 12 11 11 11 11 12 13 14 14 14 14 14 14 15 16 16 15 15 16 17 17 18 18 19 18 18 18 19 19 19 20 22 22 24 27 27 27 26 25 26 28 28 29 30 30 30 28 26 25 24 23 23
42 41 42 43 42 41 41 43 43 43 41 38 34 29 26 23 21 19 18 16 15 16 16 16 16 16 16 16 15 15 15 14 14 14 13 13 13 14 14 15 16 16 16 16 16 15 16 16 15 15 16 17 18 18 18 18 19 19 19 19 19 19 19 19 21 22 23 25 27 28 28 26 25 25 26 27 29 29 29 29 27 25 24 23 23
43 42 42 43 43 43 45 47 46 44 41 37 32 29 27 24 21 20 17 14 14 16 17 17 18 19 18 17 16 15 13 13 15 16 15 14 15 15 15 16 16 16 16 17 16 15 15 16 16 16 17 18 19 19 20 19 19 19 20 20 20 20 21 20 22 22 22 23 25 27 28 26 21 22 26 27 27 29 30 30 28 26 26 25 25
44 43 43 44 45 46 48 49 47 45 42 37 33 31 29 26 24 21 18 16 17 18 19 19 20 20 19 18 17 15 13 14 17 18 17 17 17 17 16 17 17 17 17 16 15 15 15 16 16 17 18 19 20 21 20 20 20 20 20 21 21 22 23 23 24 24 23 24 24 25 26 23 19 20 22 22 23 25 26 26 25 24 24 25 26
45 44 44 46 48 49 49 49 48 45 42 38 34 31 28 27 26 23 20 19 20 19 20 21 22 22 21 19 19 17 15 16 18 18 18 18 17 17 17 17 17 17 16 16 15 14 15 15 17 18 19 20 21 21 20 20 21 21 21 21 22 23 25 26 26 27 27 26 25 23 24 23 20 18 18 18 18 19 20 20 20 19 19 20 23
44 44 45 47 49 49 49 49 48 45 41 39 37 33 32 30 28 24 21 20 19 19 20 22 24 25 23 22 21 20 18 17 18 18 18 18 17 17 17 16 16 17 16 16 15 14 15 15 17 18 19 20 20 20 20 20 21 22 22 22 22 24 27 28 28 28 28 28 27 24 24 24 22 19 19 18 17 18 19 20 20 20 19 20 21
41 42 45 47 48 48 48 47 47 44 44 45 43 38 38 37 34 29 26 25 24 23 23 24 26 27 26 25 23 22 20 18 17 18 18 17 16 16 16 16 16 17 16 16 16 15 16 16 16 17 18 19 20 21 21 21 22 22 23 23 23 25 27 28 29 28 27 28 29 26 24 24 23 22 21 20 20 21 21 22 24 25 24 27 28
39 40 42 44 45 45 45 44 44 43 44 47 44 38 37 38 38 35 32 30 29 28 27 26 28 27 28 27 25 23 21 20 18 18 17 16 16 16 16 17 17 18 17 17 17 18 18 18 18 18 19 20 21 22 22 22 22 23 24 24 24 26 27 28 29 26 23 25 28 28 26 25 24 22 21 21 22 21 22 24 26 27 28 32 33
36 37 39 40 41 41 42 42 42 40 40 43 42 39 40 41 41 40 36 33 31 30 29 27 28 27 29 30 28 25 23 21 19 18 17 16 16 16 17 17 18 18 18 18 19 20 20 21 20 21 21 22 22 23 23 24 23 24 25 25 26 27 27 27 28 26 22 22 25 28 29 26 23 22 22 22 23 23 26 28 29 30 30 31 33
32 34 35 37 38 39 39 40 39 38 39 41 41 42 46 47 46 45 40 34 32 33 32 29 28 27 29 32 31 27 24 22 20 18 17 17 16 17 17 18 18 18 18 19 19 20 21 22 22 22 23 23 23 24 25 25 24 25 26 26 27 27 25 25 26 27 25 22 22 26 30 29 28 27 25 25 27 29 32 32 30 30 31 30 32
29 31 33 35 36 36 37 38 37 38 40 40 40 43 48 49 48 46 40 34 33 36 34 31 30 27 27 30 31 29 27 24 20 18 18 17 17 18 18 19 19 18 19 18 18 18 20 22 23 23 23 23 24 25 25 25 25 26 26 26 25 25 24 23 23 25 25 24 24 27 30 30 30 30 28 28 31 33 34 32 29 30 32 32 33
26 28 31 33 34 35 36 36 37 38 39 39 40 43 46 48 48 44 37 33 36 37 35 34 33 28 26 29 31 30 28 24 20 18 18 18 18 19 20 20 20 20 20 19 18 18 19 21 23 23 22 22 23 24 24 24 24 24 24 24 24 24 24 23 22 22 24 24 25 28 29 29 29 30 30 31 32 32 33 33 32 32 35 36 38
23 26 29 31 32 34 36 35 36 38 38 38 39 43 45 46 47 42 35 34 37 36 36 37 33 29 27 29 30 28 26 23 20 18 19 19 20 21 21 22 22 21 21 20 19 19 20 21 22 22 22 22 22 22 23 23 23 23 23 24 24 23 23 24 24 22 21 22 25 27 28 28 28 30 31 32 32 32 31 31 32 33 35 36 37
20 23 26 28 30 32 33 34 35 36 37 38 38 41 45 46 44 40 35 35 35 35 37 37 32 29 29 29 28 27 26 23 20 19 19 19 20 22 23 24 23 22 23 22 20 20 20 21 21 22 22 21 21 21 21 21 22 23 24 25 24 24 25 26 27 25 21 21 24 25 26 27 28 29 30 31 30 29 28 29 31 32 31 30 31
17 21 24 27 28 30 31 33 34 35 36 38 38 40 43 43 40 38 36 36 35 36 39 36 30 28 30 29 27 26 26 22 20 20 20 19 21 23 24 24 23 23 22 21 20 20 20 20 21 21 21 20 20 20 20 21 22 23 24 24 24 26 26 24 24 24 21 20 21 23 24 25 26 27 28 27 26 25 26 29 30 29 26 25 27
15 18 21 24 26 27 29 31 33 34 34 36 37 38 39 38 37 37 37 36 35 39 39 35 29 27 28 28 26 25 25 23 22 21 20 20 22 24 25 23 23 22 21 20 19 20 19 19 20 20 20 20 20 20 20 21 22 23 24 24 25 26 23 19 18 21 22 21 21 22 23 24 25 26 25 23 22 24 26 29 29 28 26 27 31
13 15 18 21 24 25 26 29 31 33 33 33 35 36 36 35 35 37 37 35 36 39 37 33 28 25 24 26 25 25 24 24 23 21 20 22 24 25 24 23 21 21 19 18 18 18 18 19 19 20 20 20 20 20 20 21 22 22 23 24 24 24 21 18 19 21 22 22 22 22 22 23 23 24 23 22 22 24 27 28 28 28 30 33 36
10 13 16 20 22 22 24 27 29 31 30 31 31 32 33 35 36 38 37 35 37 38 35 30 25 23 23 23 23 23 24 24 22 21 22 23 25 26 25 22 19 19 17 16 16 16 17 18 19 20 20 20 20 20 20 21 21 22 23 23 23 22 20 21 22 21 21 22 23 23 22 22 22 22 23 24 25 26 27 26 27 29 31 35 38
9 12 16 19 20 21 22 23 25 27 27 26 27 28 30 34 38 39 38 37 37 36 32 27 24 22 20 20 20 21 21 20 20 22 23 24 26 27 25 21 18 17 15 15 15 16 17 18 19 20 20 21 20 20 20 21 22 22 21 20 20 20 20 20 20 19 20 21 22 21 21 21 22 23 24 26 27 27 27 27 28 30 33 36 39
10 12 15 17 18 19 20 20 21 23 24 25 28 29 29 33 39 40 39 39 38 34 29 26 24 20 17 17 18 18 18 19 21 22 22 23 25 26 23 19 17 15 14 14 15 16 17 17 19 20 21 20 19 19 20 21 20 19 18 18 17 17 17 18 19 19 20 21 20 19 20 22 24 26 27 28 28 28 28 29 30 32 35 37 39
10 12 13 15 17 17 17 17 18 20 22 25 28 28 29 33 39 41 40 39 38 34 31 28 23 17 14 14 15 16 18 20 21 20 18 19 22 22 20 18 16 14 14 15 15 16 17 18 19 19 19 18 18 19 19 19 17 15 14 13 13 14 15 17 18 19 19 19 20 21 22 24 26 28 28 29 29 30 31 33 35 36 38 39 38
10 11 12 13 15 16 16 16 17 18 20 24 26 26 28 33 39 41 40 38 37 35 33 31 24 18 16 15 15 16 17 17 18 17 17 18 20 19 17 16 14 14 14 15 15 16 17 18 19 18 17 17 17 17 16 15 12 11 10 11 12 14 15 16 17 17 18 19 21 23 24 25 25 26 28 29 31 33 35 37 39 38 37 36 34
10 10 12 12 13 14 15 16 16 18 21 24 24 24 26 33 38 39 37 36 36 37 36 32 26 22 19 16 15 15 15 15 16 17 17 18 17 16 15 14 13 13 14 15 15 16 16 17 18 17 17 16 16 15 13 11 9 9 10 12 14 15 16 15 15 17 19 21 23 24 24 24 25 26 29 31 34 36 37 38 36 33 31 30 30
10 11 12 12 12 14 16 16 17 20 22 23 22 21 25 32 36 37 36 36 36 36 35 31 27 24 19 14 13 13 14 15 16 16 15 15 14 13 13 13 13 14 14 15 15 15 16 17 17 16 16 15 14 12 10 9 9 10 12 14 16 16 15 15 16 18 20 21 22 22 23 25 27 29 31 34 34 34 33 33 32 29 27 28 28
11 12 12 12 13 14 16 17 18 21 23 22 20 21 25 31 35 36 36 35 34 34 32 29 26 22 16 12 12 13 14 15 15 15 14 13 12 12 12 12 13 14 14 15 15 15 16 16 16 15 15 14 12 10 9 10 11 12 14 16 16 15 15 16 18 19 19 20 21 23 25 27 30 31 32 32 31 29 29 29 29 28 27 27 28
13 13 13 12 13 15 16 17 19 21 23 22 21 21 24 30 34 36 35 35 34 32 30 27 22 16 11 11 13 14 14 14 14 12 11 11 11 11 12 12 13 14 15 15 15 15 15 15 14 14 13 12 11 10 10 10 12 14 16 16 15 15 16 17 18 18 18 20 22 24 27 29 30 30 29 28 27 26 26 26 27 27 26 26 27
13 13 12 12 13 14 15 16 18 21 24 23 23 23 24 27 31 34 35 34 32 30 28 23 16 11 11 13 15 14 13 12 10 9 10 10 11 11 11 13 14 15 15 15 14 13 13 12 11 10 10 9 9 10 11 12 14 16 16 15 14 15 16 17 17 17 18 20 23 26 28 29 28 26 25 25 25 25 25 25 25 24 24 25 26
12 13 12 12 12 13 14 15 18 21 22 22 22 23 24 25 27 30 30 29 28 27 23 18 14 13 13 14 13 12 10 9 8 9 10 10 11 12 13 15 16 15 15 13 11 11 10 8 8 9 9 9 9 10 12 14 15 15 14 14 14 15 16 16 16 17 19 21 24 26 26 25 23 22 23 24 24 25 24 23 23 22 23 26 25
12 11 10 10 12 13 12 13 17 20 20 18 19 19 20 21 22 23 23 24 24 21 16 13 13 14 13 12 9 8 7 7 8 9 10 11 13 14 15 15 15 13 11 10 8 8 8 8 8 9 9 9 10 11 11 11 11 11 12 14 15 15 15 15 16 18 20 23 24 23 21 20 20 20 22 24 24 24 23 22 21 20 22 26 25
11 10 11 13 14 15 16 15 17 18 17 16 17 17 18 19 20 20 20 20 19 15 12 12 12 12 10 8 6 6 7 8 9 10 11 13 14 14 14 13 12 10 8 7 7 8 9 9 9 9 9 10 10 10 9 9 9 11 12 13 13 13 14 15 17 20 22 22 21 19 17 17 18 20 22 23 23 23 22 22 20 20 22 26 25
12 11 13 14 15 18 20 20 18 18 17 17 18 19 20 20 19 17 16 15 13 12 12 12 11 9 7 5 6 7 8 9 10 11 12 12 12 12 11 10 8 7 6 6 7 9 10 9 10 10 10 10 10 10 9 9 9 10 10 10 11 12 14 16 19 21 21 18 16 16 16 17 18 20 21 22 22 23 23 22 21 21 23 27 28
11 10 10 11 14 18 19 18 17 19 20 21 21 21 20 18 14 12 11 12 13 13 11 10 8 6 5 5 7 9 10 10 11 11 11 10 10 9 9 8 7 6 6 7 8 9 10 10 10 11 11 10 10 9 8 8 8 9 9 9 10 12 14 17 19 19 16 15 14 14 15 16 17 19 21 21 22 22 23 23 23 23 24 26 29
10 10 10 10 12 14 15 15 17 21 23 23 22 19 16 14 12 11 10 11 10 9 8 7 6 5 5 7 10 11 11 11 10 10 9 8 8 8 7 7 7 8 8 9 9 10 11 11 11 11 11 10 10 8 7 7 8 8 8 9 10 13 16 18 17 14 13 12 13 13 14 16 17 18 20 21 21 22 23 23 24 24 24 26 29
13 14 14 12 11 13 14 15 17 20 23 23 21 18 15 14 14 13 11 9 8 7 7 7 6 6 7 10 11 10 10 9 9 9 9 8 8 7 8 8 9 9 9 10 11 11 12 12 12 11 10 9 8 7 6 7 7 7 8 9 11 15 17 15 13 11 11 11 12 13 14 15 16 17 19 20 20 21 22 23 23 23 24 25 27
11 10 10 10 10 12 15 17 18 19 21 21 19 17 16 15 14 13 11 9 9 10 10 9 8 8 10 11 10 9 8 8 9 9 8 7 7 7 7 8 8 8 9 10 10 11 11 11 11 11 10 8 7 7 6 7 7 7 8 10 13 15 15 12 10 10 10 11 12 13 13 14 15 17 19 19 20 20 20 22 23 23 22 23 24
10 8 9 9 10 12 15 17 17 15 14 14 14 14 14 14 13 12 11 11 11 10 10 9 9 10 10 10 9 8 7 8 8 7 6 4 4 4 5 5 6 7 8 9 10 10 10 10 10 9 9 8 7 6 6 6 7 7 9 11 13 14 13 10 9 9 10 10 11 12 13 14 15 17 18 19 19 20 20 20 22 23 22 22 23
13 8 5 5 7 8 10 11 12 12 11 12 13 13 13 13 12 11 11 10 10 9 9 8 9 10 10 9 8 8 8 8 6 5 4 2 2 3 4 5 7 8 9 10 10 8 8 9 8 8 8 8 7 7 6 6 7 8 10 12 13 13 11 9 8 9 9 10 11 12 12 14 15 16 17 18 18 19 19 19 20 22 22 22 23
14 11 9 6 5 4 5 6 8 8 10 12 13 13 12 11 10 9 9 8 8 8 9 9 10 10 9 8 7 7 8 7 7 6 4 2 3 4 5 7 9 10 11 11 10 8 7 8 8 7 7 7 7 7 7 8 9 10 11 12 12 11 9 8 8 9 9 9 11 11 12 13 15 15 16 17 17 18 19 19 19 20 21 21 22
12 12 13 11 8 7 8 9 9 10 11 12 11 9 9 8 8 8 8 8 9 10 11 10 11 10 9 7 6 6 7 7 8 6 4 4 4 5 7 9 10 11 12 12 10 7 6 7 6 5 6 7 9 11 12 13 13 13 12 11 10 9 8 8 8 9 9 9 10 11 12 13 14 15 16 17 17 17 18 18 18 18 19 19 20
9 10 12 12 11 11 11 10 10 10 10 9 9 8 8 8 7 8 9 10 11 12 11 11 11 11 10 8 6 6 7 8 8 6 5 5 5 6 9 10 11 12 12 11 9 7 6 6 5 5 8 11 12 13 14 14 13 12 11 10 8 7 7 8 9 9 9 9 10 11 12 12 13 15 16 16 17 17 18 18 17 17 18 18 18
10 11 12 13 13 12 9 7 7 7 6 7 7 7 8 8 8 10 11 12 12 12 12 12 12 12 10 9 8 8 9 10 9 8 7 6 6 8 10 10 11 12 11 9 7 7 7 6 6 9 11 12 12 12 11 10 9 8 8 8 7 7 7 8 9 9 9 9 10 11 12 12 13 14 15 16 16 17 17 17 17 17 17 17 17
9 10 11 11 11 10 8 6 6 6 7 8 8 8 8 9 9 10 11 11 11 11 11 12 12 11 10 10 10 10 10 9 9 9 7 7 7 9 10 10 11 11 11 8 6 7 7 7 8 9 10 10 11 10 9 8 7 6 6 6 6 7 7 8 9 9 9 10 11 11 12 13 12 12 14 15 16 16 17 17 16 16 16 17 17
10 10 11 12 12 11 10 10 9 8 9 10 10 10 10 9 9 10 10 10 10 11 11 12 12 11 10 10 10 10 9 9 9 9 8 8 9 10 10 10 11 11 10 8 7 7 7 7 8 8 9 10 10 9 7 6 5 5 5 6 6 7 8 9 9 10 10 11 11 11 12 12 12 11 12 14 15 16 16 15 15 16 16 16 17
11 11 12 13 13 12 12 11 10 9 10 10 10 10 9 9 9 9 9 9 9 10 11 12 12 11 11 11 10 10 10 10 10 9 9 9 9 10 11 11 11 11 10 7 7 7 7 7 7 8 9 10 9 7 5 5 4 5 5 6 7 8 8 9 9 10 11 11 11 11 11 11 10 10 10 12 13 14 14 14 14 15 16 16 16
9 10 12 13 14 14 13 11 9 9 9 9 9 8 8 8 8 8 8 8 8 9 10 9 9 10 11 11 11 11 11 10 10 9 9 9 10 11 11 11 11 11 10 8 6 7 7 7 6 7 8 8 7 6 5 4 4 5 5 6 7 8 9 9 10 10 11 11 11 11 11 10 9 8 9 10 12 13 13 13 13 14 15 15 15
11 11 12 13 14 13 11 10 10 9 9 9 9 8 7 7 7 6 6 6 7 7 7 7 7 8 9 10 11 12 11 10 9 9 10 11 11 11 11 11 11 10 10 8 7 6 6 6 6 7 8 8 7 6 5 5 5 5 6 7 8 8 9 10 10 11 11 11 10 9 9 9 8 7 7 9 11 12 13 13 12 13 14 14 14
11 12 12 13 13 10 9 10 10 10 9 8 8 7 7 7 6 6 6 5 5 6 6 6 7 8 9 9 11 11 10 10 9 9 10 11 12 12 12 11 11 10 9 8 7 7 6 6 7 7 8 8 7 6 6 6 6 6 6 7 8 9 9 10 11 10 10 9 8 8 8 7 6 6 6 8 9 11 12 12 12 12 13 14 13
8 9 10 11 11 10 10 10 10 9 8 8 7 7 7 7 6 6 6 6 7 7 8 8 9 10 10 11 11 12 12 11 10 9 9 10 12 13 12 12 11 10 8 8 7 8 8 7 8 8 8 8 7 6 6 6 6 6 7 7 8 9 10 10 10 9 8 8 7 6 6 6 5 4 5 6 8 9 10 11 11 11 12 13 13
7 8 9 10 9 9 10 10 9 9 9 8 7 7 6 6 6 6 7 8 9 10 11 11 12 13 13 14 14 14 15 14 13 11 10 11 12 13 13 13 12 10 8 7 7 7 8 8 9 9 9 8 7 7 7 7 7 7 7 7 8 9 10 10 9 7 7 7 6 5 5 4 4 3 3 5 6 7 9 10 11 11 11 11 12
Wind_Direction
233 234 233 233 233 232 231 231 232 233 234 235 235 235 235 234 235 241 247 249 250 252 254 254 252 248 238 230 228 229 228 223 219 220 222 225 232 244 257 266 276 285 290 292 294 295 296 293 287 284 284 285 287 288 289 290 290 289 288 287 285 285 287 289 289 294 299 301 304 308 310 309 309 311 310 310 310 309 310 310 309 306 300 297 297
233 234 234 234 234 233 233 233 234 235 235 235 234 233 233 232 232 237 242 245 248 250 252 253 251 243 230 224 225 223 218 214 218 224 230 239 248 257 268 274 281 287 289 289 290 290 292 292 290 288 288 289 290 290 290 290 289 288 287 286 285 285 287 288 288 291 297 301 302 306 309 308 309 312 311 310 310 309 309 309 309 307 303 299 296
235 235 235 235 234 233 234 235 235 235 234 233 232 231 231 230 230 233 237 240 244 248 251 252 247 235 225 223 222 218 217 219 226 234 242 251 259 265 273 279 283 286 287 289 291 290 289 290 289 289 290 291 292 292 292 291 290 288 286 285 286 287 287 288 287 287 291 297 300 303 305 304 306 311 312 310 310 310 310 310 310 307 303 299 294
237 236 235 236 235 233 233 233 234 234 233 232 232 231 232 230 229 233 237 239 243 247 249 248 242 230 223 223 220 218 224 231 236 242 250 257 264 269 275 280 283 285 288 291 292 288 286 286 286 287 288 290 292 293 293 292 291 289 286 285 286 288 289 289 289 289 289 292 298 303 306 305 304 310 314 312 311 312 311 311 310 307 303 298 294
238 237 236 237 236 235 233 232 233 235 235 233 230 229 229 229 230 231 232 238 247 251 252 246 237 230 225 223 221 222 229 240 245 248 255 262 266 270 276 280 282 284 287 290 288 284 282 282 284 286 287 289 291 294 294 292 289 288 287 287 287 289 291 291 291 292 290 291 295 300 305 306 303 309 315 314 312 313 312 312 311 308 303 298 294
238 238 237 236 237 236 234 233 233 234 236 234 230 227 225 224 226 225 226 234 240 244 249 246 238 233 229 226 225 225 228 240 250 254 258 263 267 271 275 277 279 282 284 285 284 282 281 281 284 285 286 289 291 292 292 290 288 288 287 288 288 290 292 293 294 294 291 291 294 296 301 304 302 306 312 312 309 310 311 311 310 308 304 300 298
239 239 237 237 239 238 237 237 235 234 235 235 231 226 223 222 222 223 227 232 236 242 248 248 241 235 232 229 228 229 228 233 246 256 260 263 267 271 274 275 278 280 281 281 282 281 281 281 284 286 288 290 291 291 291 289 289 289 288 288 289 290 292 294 295 294 292 292 293 295 298 302 303 303 307 308 305 305 307 307 305 303 301 299 299
241 240 238 238 240 240 240 240 237 234 233 234 231 224 221 222 220 222 225 224 228 240 245 246 244 238 235 234 233 234 232 230 241 255 260 263 268 273 275 275 276 278 278 279 280 280 281 283 285 287 290 291 292 291 290 291 290 289 289 289 289 290 292 294 293 292 291 291 291 294 297 301 303 303 305 307 304 303 306 304 300 299 299 297 296
243 241 240 241 242 242 242 240 237 233 230 231 231 223 220 221 221 224 227 224 225 227 228 239 247 242 238 237 235 235 235 235 246 256 258 263 271 275 274 273 273 275 275 275 277 280 283 284 284 287 290 291 291 290 290 290 290 291 291 291 290 290 292 292 290 288 287 287 290 293 296 298 300 302 305 306 303 303 305 304 300 299 300 299 297
243 242 242 245 245 244 242 239 237 234 228 228 227 220 219 222 223 226 228 228 230 222 216 233 246 244 241 239 234 234 237 242 250 255 257 265 272 273 273 273 273 272 272 274 279 284 285 285 286 289 290 289 289 289 288 289 290 291 291 291 290 290 289 288 286 284 281 282 286 292 294 295 297 300 301 302 302 302 302 302 300 299 300 299 297
244 244 245 247 247 244 242 240 239 236 227 222 219 219 225 226 225 226 226 228 228 215 210 228 240 240 243 240 234 234 238 245 253 256 260 267 271 271 273 274 273 274 276 279 282 285 287 287 289 290 290 290 288 287 287 288 289 290 290 290 289 289 288 286 283 279 277 278 282 289 293 293 294 298 300 300 301 301 300 301 300 299 299 298 296
246 247 247 247 247 245 242 241 240 236 227 220 217 222 229 227 224 225 224 227 224 209 208 223 231 236 242 238 234 236 239 246 252 255 261 268 271 271 269 269 272 275 277 279 281 283 285 286 287 289 290 289 287 285 285 287 288 289 289 289 289 288 290 289 285 280 276 277 280 285 291 293 294 297 300 300 301 301 301 302 301 299 298 296 295
250 249 247 246 245 244 243 241 238 234 229 225 224 226 227 225 224 224 225 225 216 206 210 220 227 238 242 232 231 236 240 244 248 253 261 268 271 268 265 266 270 272 275 276 278 280 283 284 285 286 288 288 286 285 285 286 288 289 290 291 291 292 294 294 292 287 283 281 279 282 288 292 292 296 300 301 302 302 303 303 300 297 296 295 294
251 249 246 245 244 244 244 241 238 236 234 232 229 228 227 224 223 224 225 220 209 206 213 219 227 240 240 230 232 237 240 242 246 251 259 266 268 266 262 263 266 270 274 275 276 279 281 281 282 283 285 286 286 285 285 286 288 290 291 294 296 298 299 299 297 296 294 290 285 285 289 290 291 297 302 303 303 303 303 302 300 298 298 299 300
250 247 245 245 244 244 244 243 240 237 235 234 233 231 229 225 222 223 223 215 208 210 214 219 229 239 235 231 235 238 240 243 246 251 258 263 265 263 260 261 264 270 275 276 278 279 280 280 280 280 282 283 285 284 284 286 289 292 295 297 298 298 298 297 295 296 296 292 290 290 292 293 295 299 302 302 302 302 301 300 300 303 305 305 304
249 247 247 246 245 246 246 246 242 237 234 236 235 233 229 225 223 224 219 210 210 214 215 220 231 237 232 231 235 240 245 246 247 252 257 260 262 260 259 261 265 273 278 280 283 284 282 281 279 279 281 284 283 281 282 287 292 295 296 297 298 298 295 294 293 293 292 289 289 291 294 297 298 298 299 301 300 301 300 301 306 310 309 305 302
249 248 248 247 248 249 249 246 242 238 237 237 236 234 230 227 227 223 213 208 213 216 217 223 234 237 233 233 239 246 250 249 250 254 256 258 258 258 259 263 269 275 278 282 286 285 282 279 278 280 283 284 283 281 285 291 295 296 297 298 299 296 295 294 294 295 294 292 291 293 295 296 296 296 298 299 299 303 307 308 312 313 308 301 300
249 250 249 249 251 251 250 247 243 240 241 241 238 235 231 228 226 218 208 208 216 218 220 230 241 241 238 238 244 252 254 252 252 253 255 255 255 257 261 266 271 274 275 279 282 281 279 280 281 283 284 284 284 286 290 294 295 297 300 300 298 296 295 294 294 298 301 300 298 297 295 295 296 298 299 299 302 308 310 311 313 313 309 307 307
257 257 254 254 254 252 250 247 242 240 244 245 241 237 235 233 225 212 205 210 216 218 223 234 243 247 245 244 247 252 253 253 253 253 254 255 256 260 264 267 271 275 276 278 278 278 282 284 284 285 285 285 288 290 292 293 295 299 301 298 296 295 295 295 297 302 305 305 302 299 298 300 302 302 303 304 307 310 309 310 312 313 312 313 313
268 264 257 255 255 253 250 247 243 241 244 246 241 238 238 234 220 207 206 211 214 217 224 234 246 256 256 252 253 254 252 253 254 254 253 256 261 265 265 267 274 277 277 277 278 281 286 287 286 287 286 287 289 290 290 292 295 299 299 295 293 294 296 299 303 305 304 303 302 302 304 308 308 308 309 311 312 312 310 310 311 313 314 314 314
267 262 257 255 254 252 250 248 245 244 244 243 238 234 235 228 214 206 208 211 212 218 226 238 253 264 267 263 258 254 252 254 255 254 255 260 265 266 266 270 276 275 274 277 279 282 284 285 287 288 286 287 288 287 287 291 296 298 296 293 294 296 300 303 303 303 305 306 307 309 313 315 314 314 315 314 313 312 310 308 308 310 312 313 313
265 262 259 256 253 251 249 248 246 242 238 234 230 231 232 223 211 206 209 211 214 221 230 241 252 265 276 271 256 248 250 256 258 260 261 263 264 264 268 273 274 270 273 277 278 281 285 287 287 286 286 286 286 285 288 293 296 296 295 295 296 299 301 302 303 306 310 312 312 314 318 319 318 317 315 313 311 310 307 306 306 306 307 309 309
264 263 259 255 252 250 247 245 243 239 232 227 227 231 230 220 210 208 211 215 218 224 233 241 248 266 284 272 252 246 249 253 257 260 262 261 261 264 267 268 265 267 272 276 279 284 290 291 287 285 285 285 285 287 291 294 295 294 295 297 300 302 304 304 307 311 313 313 313 316 319 320 318 316 315 312 311 309 308 307 306 306 306 306 305
258 260 258 252 248 245 242 239 236 232 226 223 228 233 229 218 211 211 215 219 222 227 235 241 249 269 278 259 246 249 249 248 251 253 254 256 258 259 259 258 261 268 274 279 284 289 291 289 287 286 285 285 287 290 292 294 294 295 299 305 308 309 310 311 312 313 314 315 317 318 319 319 317 316 315 314 312 312 312 310 309 308 307 306 305
250 252 252 248 243 238 235 231 227 224 220 222 228 232 224 214 211 212 217 222 225 230 236 241 252 268 267 252 247 249 243 240 245 247 248 251 251 250 252 256 265 273 279 285 289 290 290 288 287 287 286 287 290 293 294 295 297 301 308 314 316 315 315 315 315 315 316 318 319 319 320 320 318 317 317 316 315 315 314 312 312 312 311 309 310
244 245 246 245 240 235 230 224 219 218 219 221 225 226 218 212 211 214 220 224 228 233 237 244 257 266 259 247 246 242 231 233 242 245 247 246 245 248 255 262 271 279 285 290 290 290 290 288 286 286 289 292 295 297 298 301 306 310 314 318 318 316 313 314 315 317 319 319 320 321 321 320 320 319 319 318 318 317 316 316 316 316 317 317 316
244 242 242 240 237 233 227 220 215 215 218 220 222 222 219 217 217 219 223 228 232 235 239 249 262 265 251 238 238 234 230 235 242 244 243 242 245 254 261 268 278 284 289 291 292 292 290 286 284 286 291 294 297 300 304 308 311 312 314 315 314 310 309 313 318 320 321 321 321 321 321 321 322 322 322 321 320 319 320 322 322 321 322 323 320
247 243 241 239 238 233 226 219 215 215 217 219 222 222 220 221 223 225 229 234 237 238 246 257 264 257 239 231 231 231 233 237 238 239 241 245 253 261 268 277 285 289 291 292 292 290 287 284 286 291 293 296 299 303 306 305 306 307 308 307 305 304 310 316 320 322 322 321 320 321 323 325 325 325 324 323 322 323 326 328 328 325 325 325 323
250 246 242 241 239 231 222 217 215 216 218 220 221 219 216 218 223 228 233 238 239 243 252 259 254 234 225 227 226 229 234 235 234 240 248 255 263 271 278 285 288 289 291 291 289 286 283 284 288 292 294 296 299 302 303 302 302 303 302 301 301 306 313 317 320 322 321 320 322 324 325 327 326 326 327 328 328 330 332 333 331 328 327 327 325
251 248 241 236 231 221 213 210 210 213 219 221 218 214 213 216 222 229 235 239 243 246 249 244 228 217 222 225 223 225 233 235 241 252 261 269 277 282 286 288 287 288 288 287 283 279 279 279 279 280 286 291 294 297 299 298 299 299 299 300 304 309 314 317 319 321 322 322 325 326 327 328 328 331 335 335 335 335 336 337 336 333 332 330 326
247 245 235 221 212 205 201 205 212 215 214 213 212 211 215 221 226 231 236 241 244 243 235 219 211 214 220 221 222 227 238 249 260 268 276 282 285 287 287 285 285 285 284 279 273 269 268 269 271 277 286 291 293 295 295 294 293 294 297 302 306 310 315 318 320 323 325 326 327 327 328 330 332 337 341 341 340 339 340 342 342 339 338 337 330
239 234 224 213 205 199 195 203 219 220 207 200 206 212 215 222 227 232 237 239 237 227 213 207 210 214 215 218 230 247 260 271 277 280 283 284 285 286 285 282 281 280 275 269 265 262 261 265 273 284 291 291 290 292 290 286 289 293 296 302 307 312 317 319 322 326 327 327 328 329 331 333 335 341 344 343 343 344 345 347 348 343 341 342 338
234 235 233 222 208 200 195 198 214 223 214 206 211 217 220 225 229 230 229 226 217 208 206 208 208 208 214 231 253 268 276 281 281 280 281 284 286 284 281 280 279 275 269 266 264 265 268 272 278 285 289 289 288 290 288 285 287 292 297 303 308 312 316 319 323 326 327 328 330 333 335 336 338 342 343 345 346 348 349 352 353 348 343 345 345
227 225 224 212 199 196 194 193 204 218 220 216 217 220 223 224 221 216 210 204 200 198 198 200 202 208 228 252 265 273 277 277 276 279 283 286 286 281 279 282 282 277 274 269 265 268 274 277 280 284 287 288 289 289 289 288 289 294 300 306 310 314 318 322 325 327 328 331 334 337 337 338 339 341 343 345 348 350 353 356 356 354 350 348 349
191 181 178 177 181 189 194 196 204 212 217 217 217 217 214 204 193 189 189 187 186 187 191 199 208 217 239 258 265 270 272 271 274 279 283 281 279 277 280 286 286 283 279 274 270 271 275 277 281 285 287 287 287 283 280 285 290 295 301 306 313 318 321 324 326 328 331 333 336 339 340 340 341 342 344 347 348 351 355 357 357 357 356 352 352
179 176 177 179 187 197 203 205 209 215 219 218 213 205 194 183 176 175 177 180 185 196 210 215 218 229 249 261 263 262 263 268 273 275 273 272 273 274 278 282 284 283 280 276 272 272 274 277 281 284 284 283 279 274 272 279 284 289 297 308 317 320 320 323 325 327 333 337 340 343 344 342 343 345 346 348 350 352 356 357 357 359 0 356 354
194 203 213 217 216 215 214 211 213 219 221 217 204 188 175 171 171 174 184 198 205 210 214 217 226 242 251 253 252 251 258 266 269 267 266 266 266 266 269 276 282 286 285 282 277 275 277 279 280 280 279 276 271 270 273 277 280 287 300 311 320 320 319 322 325 328 334 341 345 348 348 345 347 349 349 349 351 353 355 357 358 359 2 1 359
225 244 255 254 243 229 220 211 202 199 200 199 191 178 170 173 179 186 196 205 208 210 216 224 235 244 243 240 241 248 258 264 262 257 253 251 253 264 276 289 301 304 300 294 288 281 277 276 274 272 271 269 270 276 279 279 285 296 306 314 321 322 321 324 328 330 335 343 349 351 351 349 350 352 351 351 352 354 355 358 359 359 0 3 3
244 249 240 241 237 224 209 192 177 171 178 187 190 188 185 187 191 193 198 204 208 213 222 232 237 239 238 239 245 251 255 254 241 219 211 222 251 280 302 316 321 319 315 308 300 287 273 268 266 264 265 267 270 275 279 287 298 306 310 315 319 320 321 324 327 327 332 342 349 351 351 352 354 356 355 353 353 353 355 358 360 360 0 2 4
250 236 208 200 206 200 192 183 179 187 197 198 197 195 193 193 195 198 202 208 213 220 230 235 234 234 237 242 246 248 245 232 206 187 191 229 259 277 301 315 318 318 318 314 305 289 267 258 254 253 256 261 267 274 283 293 301 306 310 312 314 314 315 318 321 324 330 338 346 350 352 353 356 359 358 356 354 355 358 360 360 0 2 2 4
240 222 212 215 217 211 210 206 199 200 203 203 203 202 195 193 199 203 208 215 221 225 230 230 226 229 234 234 235 238 230 209 191 187 210 246 260 280 300 310 313 316 316 311 301 281 254 244 240 244 261 275 283 287 289 289 290 294 299 303 305 306 309 313 316 321 327 334 342 349 352 353 356 359 358 357 358 360 0 1 1 1 3 4 5
207 196 199 202 198 194 197 200 198 198 200 200 200 197 190 194 205 211 215 222 223 224 225 223 222 227 227 220 218 223 211 196 192 205 231 251 270 291 305 311 316 318 314 305 292 268 238 229 242 274 293 295 295 294 292 289 286 283 285 291 296 297 302 309 313 315 323 331 339 346 350 352 354 358 358 358 1 2 1 2 3 3 4 5 7
194 183 179 182 185 186 188 191 189 188 192 198 202 200 197 204 212 215 217 220 220 221 224 223 222 224 222 214 212 212 203 197 203 220 236 255 278 295 305 313 320 321 315 303 281 254 236 244 275 297 301 300 297 297 294 288 279 272 273 281 288 291 296 302 306 308 317 329 335 340 345 347 350 355 356 358 2 5 4 4 6 6 6 7 8
197 183 175 180 186 188 185 185 185 192 205 217 221 219 214 214 215 215 215 215 217 221 224 220 217 218 218 215 213 211 207 208 218 230 243 260 279 292 302 311 318 320 317 301 267 244 243 262 284 294 297 298 299 298 292 281 268 264 268 273 280 287 291 295 299 304 314 324 330 333 336 340 346 352 355 357 2 7 7 7 8 9 11 11 9
194 190 187 189 192 193 194 197 205 214 217 218 219 218 216 215 213 213 214 217 220 222 217 210 209 214 216 214 212 212 214 220 230 240 252 266 277 287 297 306 314 320 317 299 264 245 249 268 282 288 293 299 300 296 287 274 261 261 268 274 282 290 292 292 296 304 310 316 321 324 326 332 342 350 354 357 2 7 9 10 10 12 14 13 11
207 211 208 202 201 201 199 197 202 210 213 213 214 213 211 210 211 213 218 222 223 218 210 207 211 216 217 215 214 215 219 227 237 247 258 267 274 281 290 299 310 318 316 299 267 250 254 266 277 285 293 299 300 291 278 269 267 270 277 284 288 291 293 294 297 302 304 306 310 313 316 325 337 347 353 358 2 5 10 13 13 14 15 14 12
205 209 211 208 208 210 211 208 204 202 202 203 203 203 205 207 210 215 217 217 216 213 212 213 218 221 223 224 225 226 228 234 243 252 259 263 267 274 282 293 305 313 314 298 268 250 251 257 266 282 292 296 294 284 271 269 275 280 286 292 293 293 296 298 298 299 298 297 298 303 308 319 333 345 354 1 3 5 10 15 15 15 17 16 14
186 192 199 202 205 210 213 209 200 195 197 198 197 197 198 197 198 201 204 206 209 214 218 222 226 227 229 230 229 229 232 238 246 255 259 260 263 268 275 286 297 307 309 294 263 241 242 251 262 280 293 293 287 278 269 268 277 282 286 291 294 296 299 301 299 297 293 289 289 294 301 314 330 342 352 3 6 6 9 14 16 16 18 20 19
185 191 193 195 197 197 191 186 186 189 193 192 186 180 179 178 178 181 189 198 211 218 223 230 234 235 235 232 227 227 233 239 244 251 257 259 262 265 270 277 288 298 303 292 263 243 244 256 266 278 291 292 285 273 265 265 271 277 281 287 292 298 303 304 300 294 288 281 279 285 296 310 325 337 350 5 10 8 8 13 18 20 22 24 26
174 177 176 177 179 180 181 183 184 184 181 177 171 168 169 173 178 185 194 208 222 228 231 237 240 240 239 237 234 234 237 238 237 243 255 260 261 261 264 271 278 286 294 290 269 250 248 257 266 275 285 289 281 268 260 262 265 269 275 283 293 301 307 306 300 290 279 269 267 275 288 302 313 325 348 8 14 10 7 13 22 26 25 27 30
159 161 163 165 172 179 183 184 181 176 173 172 174 177 181 189 201 212 222 232 240 243 244 247 247 246 246 246 246 246 247 243 237 238 247 254 255 256 259 264 268 275 283 287 275 258 251 256 264 271 280 284 278 265 257 258 261 264 272 283 292 301 307 308 301 285 265 255 255 262 274 288 297 308 339 8 17 15 11 15 24 29 29 29 33